| time (UTC) | temp F | wind direction | speed MPH | gust MPH | rain 1hr in | rain 24hr in | rain mn in | humidity % | barometer mb |
| 20260509064558 | 48 | 332 | 0.0 | 0.0 | 0.00 | 0.00 | 0.00 | 57 | 1000.7 |
| 20260509063046 | 48 | 332 | 0.0 | 1.0 | 0.00 | 0.00 | 0.00 | 57 | 1000.7 |
| 20260509061544 | 48 | 332 | 0.0 | 1.0 | 0.00 | 0.00 | 0.00 | 57 | 1000.8 |
| 20260509060042 | 48 | 332 | 0.0 | 1.0 | 0.00 | 0.00 | 0.00 | 57 | 1000.4 |
| 20260509054548 | 49 | 332 | 0.0 | 1.0 | 0.00 | 0.00 | 0.00 | 58 | 1000.2 |
| 20260509053040 | 49 | 332 | 0.0 | 1.0 | 0.00 | 0.00 | 0.00 | 58 | 1000.5 |
| 20260509051539 | 49 | 332 | 0.0 | 4.0 | 0.00 | 0.00 | 0.00 | 56 | 1000.4 |
| 20260509050037 | 48 | 333 | 0.0 | 1.0 | 0.00 | 0.00 | 0.00 | 58 | 1000.3 |
| 20260509044534 | 48 | 333 | 0.0 | 0.0 | 0.00 | 0.00 | 0.00 | 58 | 1000.1 |
| 20260509043033 | 48 | 333 | 0.0 | 0.0 | 0.00 | 0.00 | 0.00 | 58 | 1000.1 |
| 20260509041600 | 47 | 333 | 0.0 | 2.0 | 0.00 | 0.00 | 0.00 | 59 | 1000.3 |
| 20260509040033 | 47 | 333 | 1.0 | 3.0 | 0.00 | 0.00 | 0.00 | 63 | 1000.0 |
| 20260509034531 | 47 | 333 | 0.0 | 0.0 | 0.00 | 0.00 | 0.00 | 64 | 999.8 |
| 20260509033030 | 47 | 333 | 0.0 | 0.0 | 0.00 | 0.00 | 0.00 | 62 | 999.7 |
| 20260509031534 | 47 | 333 | 0.0 | 0.0 | 0.00 | 0.00 | 0.00 | 62 | 999.8 |
| 20260509030031 | 47 | 333 | 0.0 | 0.0 | 0.00 | 0.00 | 0.00 | 64 | 1000.0 |
| 20260509024528 | 47 | 333 | 0.0 | 0.0 | 0.00 | 0.00 | 0.00 | 63 | 999.9 |
| 20260509023029 | 47 | 333 | 0.0 | 3.0 | 0.00 | 0.00 | 0.00 | 64 | 1000.1 |
| 20260509021533 | 47 | 333 | 0.0 | 2.0 | 0.00 | 0.00 | 0.00 | 67 | 1000.1 |
| 20260509020040 | 48 | 332 | 0.0 | 2.0 | 0.00 | 0.00 | 0.00 | 68 | 999.9 |
| 20260509014526 | 48 | 332 | 0.0 | 3.0 | 0.00 | 0.00 | 0.00 | 70 | 1000.1 |
| 20260509013036 | 49 | 332 | 1.0 | 2.0 | 0.00 | 0.00 | 0.00 | 70 | 1000.0 |
| 20260509011523 | 50 | 332 | 0.0 | 2.0 | 0.00 | 0.00 | 0.00 | 69 | 999.9 |
| 20260509010022 | 50 | 332 | 0.0 | 5.0 | 0.00 | 0.00 | 0.00 | 68 | 1000.2 |
| 20260509004522 | 51 | 72 | 0.0 | 1.0 | 0.00 | 0.00 | 0.00 | 66 | 1000.1 |
| 20260509003018 | 51 | 72 | 0.0 | 2.0 | 0.00 | 0.00 | 0.00 | 65 | 1000.3 |
| 20260509001517 | 51 | 76 | 0.0 | 2.0 | 0.00 | 0.00 | 0.00 | 62 | 1000.6 |
| 20260509000015 | 52 | 76 | 1.0 | 5.0 | 0.00 | 0.00 | 0.00 | 61 | 1000.6 |
| 20260508234515 | 53 | 83 | 0.0 | 5.0 | 0.00 | 0.00 | 0.00 | 55 | 1000.8 |
| 20260508233016 | 56 | 42 | 1.0 | 5.0 | 0.00 | 0.00 | 0.00 | 52 | 1000.9 |
| 20260508231512 | 59 | 38 | 1.0 | 4.0 | 0.00 | 0.00 | 0.00 | 43 | 1000.9 |
| 20260508230010 | 60 | 39 | 0.0 | 5.0 | 0.00 | 0.00 | 0.00 | 42 | 1001.0 |
| 20260508224514 | 62 | 40 | 0.0 | 5.0 | 0.00 | 0.00 | 0.00 | 41 | 1001.1 |
| 20260508223008 | 63 | 93 | 0.0 | 3.0 | 0.00 | 0.00 | 0.00 | 33 | 1000.9 |
| 20260508221508 | 64 | 93 | 0.0 | 5.0 | 0.00 | 0.00 | 0.00 | 35 | 1001.1 |
| 20260508220004 | 64 | 94 | 0.0 | 3.0 | 0.00 | 0.00 | 0.00 | 32 | 1001.3 |
| 20260508214511 | 65 | 19 | 0.0 | 3.0 | 0.00 | 0.00 | 0.00 | 33 | 1001.5 |
| 20260508213001 | 65 | 19 | 0.0 | 3.0 | 0.00 | 0.00 | 0.00 | 38 | 1001.6 |
| 20260508211600 | 64 | 19 | 2.0 | 5.0 | 0.00 | 0.00 | 0.00 | 36 | 1001.7 |
| 20260508210057 | 63 | 32 | 1.0 | 3.0 | 0.00 | 0.00 | 0.00 | 31 | 1002.0 |
| 20260508204557 | 63 | 31 | 1.0 | 4.0 | 0.00 | 0.00 | 0.00 | 34 | 1002.2 |
| 20260508203054 | 63 | 32 | 1.0 | 4.0 | 0.00 | 0.00 | 0.00 | 35 | 1002.4 |
| 20260508201551 | 63 | 40 | 1.0 | 6.0 | 0.00 | 0.00 | 0.00 | 34 | 1002.8 |
| 20260508200106 | 64 | 269 | 0.0 | 7.0 | 0.00 | 0.00 | 0.00 | 31 | 1002.8 |
| 20260508194548 | 63 | 40 | 1.0 | 4.0 | 0.00 | 0.00 | 0.00 | 31 | 1003.3 |
| 20260508193110 | 63 | 360 | 3.0 | 6.0 | 0.00 | 0.00 | 0.00 | 34 | 1003.5 |
| 20260508191545 | 62 | 310 | 0.0 | 4.0 | 0.00 | 0.00 | 0.00 | 29 | 1003.8 |
| 20260508190041 | 63 | 313 | 0.0 | 6.0 | 0.00 | 0.00 | 0.00 | 29 | 1004.0 |
| 20260508184539 | 62 | 27 | 1.0 | 5.0 | 0.00 | 0.00 | 0.00 | 31 | 1004.2 |
| 20260508183037 | 63 | 33 | 2.0 | 6.0 | 0.00 | 0.00 | 0.00 | 30 | 1004.4 |
| 20260508181544 | 63 | 355 | 0.0 | 5.0 | 0.00 | 0.00 | 0.00 | 34 | 1004.5 |
| 20260508180035 | 63 | 243 | 3.0 | 6.0 | 0.00 | 0.00 | 0.00 | 29 | 1004.7 |
| 20260508174530 | 62 | 248 | 1.0 | 6.0 | 0.00 | 0.00 | 0.00 | 31 | 1005.0 |
| 20260508173028 | 62 | 317 | 3.0 | 9.0 | 0.00 | 0.00 | 0.00 | 30 | 1005.3 |
| 20260508171526 | 62 | 324 | 1.0 | 6.0 | 0.00 | 0.00 | 0.00 | 31 | 1005.5 |
| 20260508170023 | 61 | 323 | 0.0 | 7.0 | 0.00 | 0.00 | 0.00 | 30 | 1005.7 |
| 20260508164520 | 61 | 20 | 1.0 | 5.0 | 0.00 | 0.00 | 0.00 | 34 | 1005.9 |
| 20260508163023 | 61 | 322 | 2.0 | 7.0 | 0.00 | 0.00 | 0.00 | 32 | 1006.1 |
| 20260508161518 | 61 | 38 | 1.0 | 6.0 | 0.00 | 0.00 | 0.00 | 33 | 1006.1 |
| 20260508160014 | 60 | 279 | 0.0 | 6.0 | 0.00 | 0.00 | 0.00 | 37 | 1006.4 |
| 20260508154532 | 60 | 271 | 2.0 | 8.0 | 0.00 | 0.00 | 0.00 | 35 | 1006.5 |
| 20260508153012 | 59 | 319 | 2.0 | 8.0 | 0.00 | 0.00 | 0.00 | 34 | 1006.6 |
| 20260508151512 | 59 | 319 | 2.0 | 6.0 | 0.00 | 0.00 | 0.00 | 35 | 1006.6 |
| 20260508150005 | 58 | 332 | 1.0 | 5.0 | 0.00 | 0.00 | 0.00 | 38 | 1006.9 |
| 20260508144503 | 57 | 253 | 2.0 | 5.0 | 0.00 | 0.00 | 0.00 | 41 | 1007.0 |
| 20260508143105 | 56 | 262 | 1.0 | 5.0 | 0.00 | 0.00 | 0.00 | 40 | 1007.2 |
| 20260508141604 | 54 | 270 | 1.0 | 5.0 | 0.00 | 0.00 | 0.00 | 45 | 1007.4 |
| 20260508140050 | 52 | 219 | 2.0 | 5.0 | 0.00 | 0.00 | 0.00 | 49 | 1007.5 |
| 20260508134557 | 51 | 186 | 1.0 | 5.0 | 0.00 | 0.00 | 0.00 | 54 | 1007.6 |
| 20260508133050 | 48 | 265 | 1.0 | 5.0 | 0.00 | 0.00 | 0.00 | 59 | 1007.6 |
| 20260508131536 | 46 | 93 | 0.0 | 2.0 | 0.00 | 0.00 | 0.00 | 64 | 1007.7 |
| 20260508130034 | 43 | 93 | 0.0 | 2.0 | 0.00 | 0.00 | 0.00 | 71 | 1007.9 |
| 20260508124534 | 39 | 93 | 0.0 | 0.0 | 0.00 | 0.00 | 0.00 | 82 | 1008.0 |
| 20260508123041 | 37 | 93 | 0.0 | 0.0 | 0.00 | 0.00 | 0.00 | 87 | 1007.9 |
| 20260508121528 | 34 | 93 | 0.0 | 0.0 | 0.00 | 0.00 | 0.00 | 94 | 1008.0 |
| 20260508120121 | 32 | 93 | 0.0 | 0.0 | 0.00 | 0.00 | 0.00 | 94 | 1007.9 |
| 20260508114541 | 29 | 93 | 0.0 | 0.0 | 0.00 | 0.00 | 0.00 | 93 | 1007.9 |
| 20260508113040 | 29 | 93 | 0.0 | 0.0 | 0.00 | 0.00 | 0.00 | 92 | 1007.8 |
| 20260508111540 | 28 | 93 | 0.0 | 0.0 | 0.00 | 0.00 | 0.00 | 92 | 1007.8 |
| 20260508110036 | 28 | 93 | 0.0 | 0.0 | 0.00 | 0.00 | 0.00 | 91 | 1007.8 |
| 20260508104536 | 28 | 93 | 0.0 | 0.0 | 0.00 | 0.00 | 0.00 | 91 | 1007.8 |
| 20260508103035 | 29 | 93 | 0.0 | 0.0 | 0.00 | 0.00 | 0.00 | 91 | 1007.9 |
| 20260508101534 | 29 | 93 | 0.0 | 1.0 | 0.00 | 0.00 | 0.00 | 91 | 1008.0 |
| 20260508100031 | 29 | 93 | 0.0 | 1.0 | 0.00 | 0.00 | 0.00 | 91 | 1008.1 |
| 20260508094530 | 29 | 93 | 0.0 | 0.0 | 0.00 | 0.00 | 0.00 | 91 | 1008.2 |
| 20260508093029 | 29 | 93 | 0.0 | 2.0 | 0.00 | 0.00 | 0.00 | 90 | 1008.2 |
| 20260508091527 | 29 | 93 | 0.0 | 0.0 | 0.00 | 0.00 | 0.00 | 90 | 1008.2 |
| 20260508090043 | 29 | 93 | 0.0 | 0.0 | 0.00 | 0.00 | 0.00 | 89 | 1008.3 |
| 20260508084523 | 30 | 93 | 0.0 | 0.0 | 0.00 | 0.00 | 0.00 | 89 | 1008.3 |
| 20260508083022 | 30 | 93 | 0.0 | 0.0 | 0.00 | 0.00 | 0.00 | 88 | 1008.4 |
| 20260508081520 | 31 | 93 | 0.0 | 0.0 | 0.00 | 0.00 | 0.00 | 88 | 1008.5 |
| 20260508080017 | 31 | 93 | 0.0 | 0.0 | 0.00 | 0.00 | 0.00 | 87 | 1008.5 |
| 20260508074523 | 31 | 93 | 0.0 | 0.0 | 0.00 | 0.00 | 0.00 | 87 | 1008.7 |
| 20260508073015 | 32 | 93 | 0.0 | 0.0 | 0.00 | 0.00 | 0.00 | 87 | 1008.7 |
| 20260508071511 | 32 | 93 | 0.0 | 0.0 | 0.00 | 0.00 | 0.00 | 86 | 1008.8 |
| 20260508070009 | 33 | 93 | 0.0 | 0.0 | 0.00 | 0.00 | 0.00 | 85 | 1009.0 |